Rutherfordton, NC

6:21 PM EDT on September 25, 2016 (GMT -0400)
Rutherford County-Marchman

Weather History for KFQD - February, 2014

Change the Weather History Date:

Wednesday, February 5, 2014

  Actual Average (KAVL) Record (KAVL)
Temperature  
Mean Temperature 48 °F 39 °F  
Max Temperature 61 °F 49 °F 73 °F (2008)
Min Temperature 35 °F 28 °F -4 °F (1917)
Degree Days  
Heating Degree Days 16 26  
Month to date heating degree days 134  
Since 1 July heating degree days 2661  
Cooling Degree Days 0 0  
Month to date cooling degree days 0  
Year to date cooling degree days 0  
Moisture  
Dew Point 36 °F    
Average Humidity 83    
Maximum Humidity 100    
Minimum Humidity 45    
Precipitation  
Precipitation 0.12 in 0.13 in 1.80 in (2010)
Month to date precipitation 0.67  
Year to date precipitation 4.34  
Snow  
Snow 0.00 in 0.10 in 6.00 in (1929)
Month to date snowfall 0.5  
Since 1 July snowfall 5.6  
Snow Depth -    
Sea Level Pressure  
Sea Level Pressure 29.95 in    
Wind  
Wind Speed 2 mph (NW)    
Max Wind Speed 16 mph    
Max Gust Speed 26 mph    
Visibility 8 miles    
Events Rain    
T = Trace of Precipitation, MM = Missing Value Source: NWS Daily Summary

Daily Weather History Graph

Daily Weather History Graph

Search for Another Location

Airport or City:

Trip Planner

Search our weather history database for the weather conditions in past years. The results will help you decide how hot, cold, wet, or windy it might be!

Date:

Astronomy

Feb. 05, 2014 Rise Set
Actual Time 7:24 AM EST 5:59 PM EST
Civil Twilight 6:57 AM EST 6:26 PM EST
Nautical Twilight 6:27 AM EST 6:56 PM EST
Astronomical Twilight 5:57 AM EST 7:26 PM EST
Moon 10:53 AM EST (2/5) No Moon Set
Length of Visible Light 11h 28m
Length of Day
10h 35m
Waxing Crescent, 39% of the Moon is Illuminated
Feb 5
Waxing Crescent
Feb 6
First Quarter
Feb 14
Full
Feb 22
Last Quarter
Mar 1
New

Hourly Weather History & Observations

Time (EST) Temp. Windchill Dew Point Humidity Pressure Visibility Wind Dir Wind Speed Gust Speed Precip Events Conditions
12:15 AM 37.4 °F - 36.5 °F 97% 30.08 in 5.0 mi Calm Calm - N/A Rain Light Rain
12:35 AM 37.4 °F - 36.7 °F 97% 30.08 in 7.0 mi Calm Calm - N/A   Overcast
12:55 AM 37.4 °F - 37.0 °F 99% 30.08 in 2.5 mi Calm Calm - N/A   Overcast
1:15 AM 37.0 °F - 37.0 °F 100% 30.07 in 2.0 mi Calm Calm - N/A   Overcast
1:35 AM 37.2 °F - 37.2 °F 100% 30.05 in 2.5 mi Calm Calm - N/A   Overcast
1:55 AM 37.0 °F - 36.9 °F 99% 30.03 in 2.5 mi Calm Calm - N/A   Overcast
2:15 AM 37.0 °F - 36.9 °F 99% 30.02 in 2.0 mi Calm Calm - N/A   Overcast
2:35 AM 37.2 °F 33.6 °F 37.2 °F 100% 30.03 in 1.8 mi NW 4.6 mph - N/A   Overcast
2:55 AM 36.9 °F - 36.9 °F 100% 30.00 in 1.5 mi Calm Calm - N/A   Overcast
3:15 AM 36.7 °F 32.9 °F 36.7 °F 100% 29.92 in 0.8 mi SE 4.6 mph - N/A   Overcast
3:35 AM 36.9 °F 34.3 °F 36.9 °F 100% 29.95 in 2.0 mi NNW 3.5 mph - N/A   Overcast
3:55 AM 36.9 °F - 36.9 °F 100% 29.96 in 1.8 mi Calm Calm - N/A   Overcast
4:15 AM 36.9 °F - 36.9 °F 100% 29.94 in 1.8 mi Calm Calm - N/A   Drizzle
4:35 AM 36.9 °F - 36.9 °F 100% 29.96 in 1.5 mi Calm Calm - 0.01 in   Drizzle
4:55 AM 36.9 °F - 36.9 °F 100% 29.94 in 1.8 mi Calm Calm - 0.03 in Rain Rain
5:15 AM 37.0 °F 34.5 °F 37.0 °F 100% 29.93 in 3.0 mi SSE 3.5 mph - 0.01 in Rain Rain
5:35 AM 36.9 °F 34.3 °F 36.9 °F 100% 29.91 in 3.0 mi SE 3.5 mph - 0.04 in Rain Light Rain
5:55 AM 36.9 °F 34.3 °F 36.9 °F 100% 29.92 in 4.0 mi SSE 3.5 mph - 0.05 in Rain Light Rain
6:15 AM 36.9 °F - 36.9 °F 100% 29.92 in 4.0 mi Calm Calm - 0.02 in Rain Rain
6:35 AM 36.9 °F - 36.9 °F 100% 29.90 in 4.0 mi Calm Calm - 0.04 in Rain Rain
6:55 AM 37.2 °F - 37.2 °F 100% 29.92 in 5.0 mi Calm Calm - 0.04 in   Drizzle
7:15 AM 37.0 °F 34.5 °F 37.0 °F 100% 29.92 in 3.0 mi South 3.5 mph - N/A   Light Drizzle
7:35 AM 37.0 °F - 37.0 °F 100% 29.92 in 3.0 mi Calm Calm - N/A   Overcast
7:55 AM 37.2 °F - 37.2 °F 100% 29.90 in 5.0 mi Calm Calm - N/A   Overcast
8:15 AM 37.4 °F 33.8 °F 37.4 °F 100% 29.90 in 5.0 mi South 4.6 mph - N/A   Overcast
8:35 AM 37.8 °F 33.3 °F 37.8 °F 100% 29.89 in 7.0 mi SSE 5.8 mph - N/A   Overcast
8:55 AM 37.8 °F 32.5 °F 37.8 °F 100% 29.89 in 10.0 mi South 6.9 mph - N/A   Overcast
9:15 AM 38.5 °F - 38.3 °F 99% 29.89 in 10.0 mi Calm Calm - N/A   Overcast
9:35 AM 39.2 °F 37.0 °F 38.8 °F 99% 29.89 in 10.0 mi West 3.5 mph - N/A   Overcast
9:55 AM 39.2 °F 37.0 °F 38.8 °F 99% 29.89 in 10.0 mi SW 3.5 mph - N/A   Overcast
10:15 AM 39.4 °F 37.2 °F 39.0 °F 99% 29.87 in 10.0 mi South 3.5 mph - N/A   Overcast
10:35 AM 39.7 °F - 39.6 °F 99% 29.87 in 10.0 mi Calm Calm - N/A   Overcast
10:55 AM 41.0 °F - 40.6 °F 99% 29.87 in 10.0 mi Calm Calm - N/A   Overcast
11:15 AM 41.5 °F - 41.2 °F 99% 29.86 in 10.0 mi Calm Calm - N/A   Overcast
11:35 AM 42.3 °F - 41.5 °F 97% 29.86 in 10.0 mi Calm Calm - N/A   Overcast
11:55 AM 43.3 °F - 42.3 °F 96% 29.86 in 10.0 mi Calm Calm - N/A   Overcast
12:15 PM 43.7 °F - 42.6 °F 96% 29.85 in 10.0 mi Calm Calm - N/A   Overcast
12:35 PM 44.2 °F - 42.8 °F 95% 29.85 in 10.0 mi Calm Calm - N/A   Overcast
12:55 PM 44.8 °F - 43.3 °F 95% 29.84 in 10.0 mi Calm Calm - N/A   Overcast
1:15 PM 45.7 °F - 43.9 °F 93% 29.83 in 10.0 mi Calm Calm - N/A   Overcast
1:35 PM 47.3 °F - 44.8 °F 91% 29.83 in 10.0 mi Calm Calm - N/A   Overcast
1:55 PM 48.7 °F - 45.7 °F 89% 29.83 in 10.0 mi Calm Calm - N/A   Mostly Cloudy
2:15 PM 52.0 °F - 46.8 °F 82% 29.83 in 10.0 mi SSW 6.9 mph - N/A   Clear
2:35 PM 53.6 °F - 47.1 °F 79% 29.83 in 10.0 mi Calm Calm - N/A   Clear
2:55 PM 56.3 °F - 48.0 °F 74% 29.83 in 10.0 mi Calm Calm - N/A   Clear
3:15 PM 58.3 °F - 48.2 °F 69% 29.84 in 10.0 mi Calm Calm - N/A   Clear
3:35 PM 60.1 °F - 44.6 °F 57% 29.85 in 10.0 mi NW 3.5 mph - N/A   Clear
3:55 PM 61.0 °F - 44.8 °F 55% 29.86 in 10.0 mi NW 4.6 mph - N/A   Clear
4:15 PM 60.4 °F - 44.2 °F 55% 29.87 in 10.0 mi NW 4.6 mph - N/A   Clear
4:35 PM 58.1 °F - 36.9 °F 45% 29.89 in 10.0 mi NW 16.1 mph 25.3 mph N/A   Scattered Clouds
4:55 PM 55.4 °F - 35.2 °F 47% 29.91 in 10.0 mi NW 13.8 mph 19.6 mph N/A   Clear
5:15 PM 52.3 °F - 33.4 °F 49% 29.92 in 10.0 mi NW 13.8 mph 23.0 mph N/A   Clear
5:35 PM 50.2 °F - 32.0 °F 50% 29.94 in 10.0 mi NW 11.5 mph 20.7 mph N/A   Clear
5:55 PM 48.4 °F - 30.7 °F 51% 29.94 in 10.0 mi NW 15.0 mph 19.6 mph N/A   Clear
6:15 PM 46.8 °F - 29.7 °F 51% 29.96 in 10.0 mi NW 11.5 mph 20.7 mph N/A   Clear
6:35 PM 45.7 °F 40.6 °F 29.1 °F 52% 29.97 in 10.0 mi NNW 10.4 mph 20.7 mph N/A   Clear
6:55 PM 44.6 °F 37.8 °F 28.0 °F 52% 29.98 in 10.0 mi NW 15.0 mph 26.5 mph N/A   Clear
7:15 PM 42.8 °F 36.6 °F 27.5 °F 55% 29.99 in 10.0 mi NNW 11.5 mph - N/A   Clear
7:35 PM 41.7 °F 33.7 °F 27.3 °F 57% 30.00 in 10.0 mi NW 16.1 mph 23.0 mph N/A   Clear
7:55 PM 41.0 °F 37.1 °F 27.3 °F 58% 30.02 in 10.0 mi NW 5.8 mph 19.6 mph N/A   Clear
8:15 PM 40.1 °F 34.7 °F 27.7 °F 61% 30.02 in 10.0 mi NW 8.1 mph 17.3 mph N/A   Clear
8:35 PM 39.2 °F 35.0 °F 27.9 °F 64% 30.04 in 10.0 mi WNW 5.8 mph - N/A   Clear
8:55 PM 39.2 °F - 27.5 °F 63% 30.05 in 10.0 mi Calm Calm - N/A   Clear
9:15 PM 38.7 °F 35.2 °F 27.5 °F 64% 30.06 in 10.0 mi NNW 4.6 mph - N/A   Clear
9:35 PM 38.5 °F 34.1 °F 27.9 °F 66% 30.07 in 10.0 mi North 5.8 mph - N/A   Clear
9:55 PM 37.6 °F 34.0 °F 27.3 °F 66% 30.07 in 10.0 mi North 4.6 mph - N/A   Clear
10:15 PM 37.4 °F 34.9 °F 26.6 °F 65% 30.08 in 10.0 mi NNW 3.5 mph - N/A   Clear
10:35 PM 36.9 °F - 27.0 °F 67% 30.09 in 10.0 mi Calm Calm - N/A   Clear
10:55 PM 36.5 °F 33.9 °F 26.4 °F 67% 30.09 in 10.0 mi North 3.5 mph - N/A   Clear
11:15 PM 36.1 °F 32.3 °F 26.1 °F 67% 30.10 in 10.0 mi North 4.6 mph - N/A   Clear
11:35 PM 36.1 °F 29.3 °F 25.7 °F 66% 30.11 in 10.0 mi North 9.2 mph 18.4 mph N/A   Clear
11:55 PM 35.6 °F 29.9 °F 25.9 °F 68% 30.12 in 10.0 mi North 6.9 mph - N/A   Clear